Regional Weather Roundup
Issued by NWS New Orleans/Baton Rouge, LA

Home | Current Version | Previous Version | Text Only | Print | Product List | Glossary On
Versions: 1 2 3 4 5 6 7 8 9 10 11 12 13 14 15 16 17 18 19 20 21 22 23 24 25 26 27 28 29 30 31 32 33 34 35 36 37 38 39 40 41 42 43 44 45 46 47 48 49 50
000
ASUS44 KLIX 271510
RWRLIX
NEW ORLEANS REGIONAL WEATHER ROUNDUP
NATIONAL WEATHER SERVICE NEW ORLEANS LA
900 AM CST SAT DEC 27 2014

NOTE: "FAIR" INDICATES FEW OR NO CLOUDS BELOW 12,000 FEET WITH NO
      SIGNIFICANT WEATHER AND/OR OBSTRUCTIONS TO VISIBILITY.
      SKY/WX - SKY CONDITION AND SIGNIFICANT WEATHER.
      TMP - AIR TEMPERATURE.     DP    - DEWPOINT TEMPERATURE.
      RH  - RELATIVE HUMIDITY.   PRES  - PRESSURE.
      HI  - HEAT INDEX.          WCI   - WIND CHILL INDEX.

*  THESE STATIONS ARE NOT NWS OR FAA STATIONS AND ARE NOT UNDER
   NWS QUALITY CONTROL.

LAZ038-040-048-061>063-065>067-069-271600-
SOUTHEAST LOUISIANA

CITY           SKY/WX    TMP DP  RH WIND       PRES   REMARKS
N.O. AUDUBON     N/A     67  67 100 MISG        N/A
N.O. INTL ARPT LGT RAIN  66  64  93 E6        30.14R FOG
N.O. LAKEFRONT LGT RAIN  62  60  93 NE3       30.15S VSB 3/4
N.O. DOWNTOWN* CLOUDY    66  63  88 SE7       30.15R
SLIDELL        CLOUDY    65  63  93 E6        30.14F FOG
BATON ROUGE    LGT RAIN  62  61  96 E8        30.13R FOG
BOOTHVILLE     LGT RAIN  69  67  93 SE15      30.15S
BELLE CHASSE   RAIN      66  65  96 SE13      30.13S FOG
BOGALUSA*        N/A     61  58  89 NE3       30.19S FOG
GALLIANO*      CLOUDY    64  64  97 MISG      30.13S
NEW ROADS*     CLOUDY    62  61  98 E7        30.13R FOG
GONZALES*      TSTM      64  64  99 NE5       30.12R VSB 3/4
HAMMOND*       NOT AVBL
HOUMA*         LGT RAIN  68  66  94 SE14G22   30.12R FOG
PORT FOURCHON* CLOUDY    68  68 100 SE15G22   30.16R FOG

$$

MSZ070-080>082-271600-
SOUTHERN MISSISSIPPI

CITY           SKY/WX    TMP DP  RH WIND       PRES   REMARKS
MCCOMB         CLOUDY    57  56  96 SE8       30.16R FOG
GULFPORT       CLOUDY    65  62  90 E13       30.17F
BILOXI         MOSUNNY   63  63 100 E7        30.16S
PASCAGOULA     CLOUDY    61  58  90 NE5       30.20S
STENNIS ARPT*  CLOUDY    64  59  82 SE7       30.17S FOG

$$

COASTAL OBSERVATIONS
LAKE AND NEARSHORE STATIONS

STATION/POSITION TIME  TEMP    WIND        PRES    WAVE
                       AIR SEA DIR/SP/G            HT/PER
                 (UTC) (F)     (DEG/KT/KT) (MB)    (FT/S)
PASCAGOULA       1500   64     100/  8/ 12 1022.2
WAVELAND YACHT   1500   63     110/ 14/ 17 1020.5
GRAND ISLE       1500   67 63  140/ 10/ 16 1020.8
SOUTHWEST PASS   1500   67                 1021.2
NEW CANAL        1500   60 57   70/  7/  8 1020.8
SHELL BEACH      1500   64 59  120/ 14/ 17 1020.3

OFFSHORE STATIONS

STATION/POSITION TIME  TEMP    WIND        PRES    WAVE
                       AIR SEA DIR/SP/G            HT/PER
                 (UTC) (F)     (DEG/KT/KT) (MB)    (FT/S)
64 S DAUPHIN ISL 1500   72 74  140/ 21/ 25 1021.7    5/ 6

$$



USA.gov is the U.S. government's official web portal to all federal, state and local government web resources and services.